| time (UTC) | temp F | wind direction | speed MPH | gust MPH | rain 1hr in | rain 24hr in | rain mn in | humidity % | barometer mb |
| 20260903012013 | 64 | 29 | 13.0 | 16.0 | 0.00 | 0.15 | 0.15 | 99 | 1026.4 |
| 20260903011513 | 64 | 29 | 13.0 | 16.0 | 0.00 | 0.15 | 0.15 | 99 | 1026.3 |
| 20260903011008 | 64 | 29 | 13.0 | 16.0 | 0.00 | 0.15 | 0.15 | 99 | 1026.4 |
| 20260903010503 | 64 | 29 | 13.0 | 16.0 | 0.00 | 0.15 | 0.15 | 99 | 1026.3 |
| 20260903010001 | 64 | 29 | 13.0 | 16.0 | 0.00 | 0.15 | 0.15 | 99 | 1026.3 |
| 20260903005456 | 64 | 29 | 13.0 | 16.0 | 0.00 | 0.15 | 0.15 | 99 | 1026.2 |
| 20260903004952 | 64 | 29 | 13.0 | 16.0 | 0.00 | 0.15 | 0.15 | 99 | 1026.5 |
| 20260903004446 | 64 | 29 | 13.0 | 16.0 | 0.00 | 0.15 | 0.15 | 99 | 1026.4 |
| 20260903003942 | 64 | 29 | 13.0 | 16.0 | 0.00 | 0.15 | 0.15 | 99 | 1026.5 |
| 20260903003437 | 64 | 29 | 13.0 | 16.0 | 0.00 | 0.15 | 0.15 | 99 | 1026.6 |
| 20260903002932 | 64 | 29 | 13.0 | 16.0 | 0.00 | 0.15 | 0.15 | 99 | 1026.5 |
| 20260903002426 | 64 | 29 | 13.0 | 16.0 | 0.00 | 0.15 | 0.15 | 99 | 1026.2 |
| 20260903001921 | 64 | 29 | 13.0 | 16.0 | 0.00 | 0.15 | 0.15 | 99 | 1026.3 |
| 20260903001421 | 64 | 29 | 13.0 | 16.0 | 0.00 | 0.15 | 0.15 | 99 | 1026.0 |
| 20260903000920 | 64 | 29 | 13.0 | 16.0 | 0.00 | 0.15 | 0.15 | 99 | 1025.9 |
| 20260903000417 | 64 | 29 | 13.0 | 16.0 | 0.00 | 0.15 | 0.15 | 99 | 1025.9 |
| 20260902235914 | 64 | 29 | 13.0 | 16.0 | 0.00 | 0.15 | 0.15 | 99 | 1025.7 |
| 20260902235409 | 64 | 29 | 13.0 | 16.0 | 0.00 | 0.15 | 0.15 | 99 | 1025.5 |
| 20260902234908 | 64 | 29 | 13.0 | 16.0 | 0.00 | 0.15 | 0.15 | 99 | 1025.5 |
| 20260902234403 | 64 | 29 | 13.0 | 16.0 | 0.00 | 0.15 | 0.15 | 99 | 1025.6 |
| 20260902233857 | 64 | 29 | 13.0 | 16.0 | 0.00 | 0.15 | 0.15 | 99 | 1025.6 |
| 20260902233351 | 65 | 29 | 13.0 | 16.0 | 0.00 | 0.15 | 0.15 | 99 | 1025.6 |
| 20260902232850 | 65 | 29 | 13.0 | 16.0 | 0.00 | 0.15 | 0.15 | 99 | 1025.9 |
| 20260902232344 | 65 | 29 | 13.0 | 16.0 | 0.00 | 0.15 | 0.15 | 99 | 1026.2 |
| 20260902231839 | 65 | 29 | 13.0 | 16.0 | 0.00 | 0.15 | 0.15 | 99 | 1026.3 |
| 20260902231333 | 65 | 29 | 13.0 | 16.0 | 0.00 | 0.15 | 0.15 | 99 | 1026.5 |
| 20260902230828 | 65 | 29 | 13.0 | 16.0 | 0.00 | 0.15 | 0.15 | 99 | 1026.5 |
| 20260902230327 | 65 | 29 | 13.0 | 16.0 | 0.00 | 0.15 | 0.15 | 99 | 1026.2 |
| 20260902225822 | 65 | 29 | 13.0 | 16.0 | 0.00 | 0.15 | 0.15 | 99 | 1026.5 |
| 20260902225317 | 65 | 29 | 13.0 | 16.0 | 0.00 | 0.15 | 0.15 | 99 | 1026.3 |
| 20260902224815 | 65 | 29 | 13.0 | 16.0 | 0.00 | 0.15 | 0.15 | 99 | 1026.5 |
| 20260902224310 | 66 | 29 | 13.0 | 16.0 | 0.00 | 0.15 | 0.15 | 99 | 1026.9 |
| 20260902223807 | 66 | 29 | 13.0 | 16.0 | 0.00 | 0.15 | 0.15 | 99 | 1027.0 |
| 20260902223302 | 66 | 29 | 13.0 | 16.0 | 0.00 | 0.15 | 0.15 | 98 | 1027.3 |
| 20260902222800 | 66 | 29 | 13.0 | 16.0 | 0.00 | 0.15 | 0.15 | 98 | 1027.0 |
| 20260902222254 | 66 | 29 | 13.0 | 16.0 | 0.00 | 0.15 | 0.15 | 97 | 1027.2 |
| 20260902221749 | 66 | 29 | 13.0 | 16.0 | 0.00 | 0.15 | 0.15 | 97 | 1027.1 |
| 20260902221248 | 67 | 29 | 13.0 | 16.0 | 0.00 | 0.15 | 0.15 | 97 | 1027.1 |
| 20260902220744 | 67 | 29 | 13.0 | 16.0 | 0.00 | 0.15 | 0.15 | 96 | 1027.4 |
| 20260902220243 | 67 | 29 | 13.0 | 16.0 | 0.00 | 0.15 | 0.15 | 95 | 1027.3 |
| 20260902215739 | 67 | 29 | 13.0 | 16.0 | 0.00 | 0.15 | 0.15 | 95 | 1027.3 |
| 20260902215234 | 68 | 29 | 13.0 | 16.0 | 0.00 | 0.15 | 0.15 | 94 | 1027.3 |
| 20260902214730 | 68 | 29 | 13.0 | 16.0 | 0.00 | 0.15 | 0.15 | 95 | 1027.1 |
| 20260902214229 | 68 | 29 | 13.0 | 16.0 | 0.00 | 0.15 | 0.15 | 94 | 1026.9 |
| 20260902213724 | 68 | 29 | 13.0 | 16.0 | 0.00 | 0.15 | 0.15 | 98 | 1027.0 |
| 20260902213224 | 67 | 29 | 13.0 | 16.0 | 0.00 | 0.15 | 0.15 | 98 | 1026.9 |
| 20260902212724 | 66 | 29 | 13.0 | 16.0 | 0.00 | 0.15 | 0.15 | 98 | 1026.8 |
| 20260902212221 | 66 | 29 | 13.0 | 16.0 | 0.00 | 0.15 | 0.15 | 97 | 1027.1 |
| 20260902211717 | 66 | 29 | 13.0 | 16.0 | 0.00 | 0.15 | 0.15 | 96 | 1026.8 |
| 20260902211212 | 66 | 29 | 13.0 | 16.0 | 0.00 | 0.15 | 0.15 | 97 | 1026.8 |
| 20260902210712 | 66 | 29 | 13.0 | 16.0 | 0.00 | 0.15 | 0.15 | 98 | 1026.8 |
| 20260902210207 | 67 | 29 | 13.0 | 16.0 | 0.00 | 0.15 | 0.15 | 98 | 1027.0 |
| 20260902205705 | 66 | 29 | 13.0 | 16.0 | 0.00 | 0.15 | 0.15 | 97 | 1026.7 |
| 20260902205200 | 66 | 29 | 13.0 | 16.0 | 0.00 | 0.15 | 0.15 | 96 | 1026.7 |
| 20260902204656 | 67 | 29 | 13.0 | 16.0 | 0.00 | 0.15 | 0.15 | 96 | 1026.7 |
| 20260902204150 | 67 | 29 | 13.0 | 16.0 | 0.00 | 0.15 | 0.15 | 97 | 1026.8 |
| 20260902203646 | 67 | 29 | 13.0 | 16.0 | 0.00 | 0.15 | 0.15 | 97 | 1026.9 |
| 20260902203145 | 67 | 29 | 13.0 | 16.0 | 0.00 | 0.15 | 0.15 | 96 | 1026.9 |
| 20260902202635 | 67 | 29 | 13.0 | 16.0 | 0.00 | 0.15 | 0.15 | 97 | 1026.9 |
| 20260902202132 | 66 | 29 | 13.0 | 16.0 | 0.00 | 0.15 | 0.15 | 97 | 1026.9 |
| 20260902201628 | 66 | 29 | 13.0 | 16.0 | 0.00 | 0.15 | 0.15 | 98 | 1026.8 |
| 20260902201127 | 66 | 29 | 13.0 | 16.0 | 0.00 | 0.15 | 0.15 | 99 | 1026.8 |
| 20260902200622 | 66 | 29 | 13.0 | 16.0 | 0.00 | 0.15 | 0.15 | 99 | 1026.8 |
| 20260902200118 | 65 | 29 | 13.0 | 16.0 | 0.00 | 0.15 | 0.15 | 99 | 1026.8 |
| 20260902195613 | 65 | 29 | 13.0 | 16.0 | 0.00 | 0.15 | 0.15 | 99 | 1026.6 |
| 20260902195112 | 65 | 29 | 13.0 | 16.0 | 0.00 | 0.15 | 0.15 | 99 | 1026.6 |
| 20260902194606 | 65 | 29 | 13.0 | 16.0 | 0.00 | 0.15 | 0.15 | 99 | 1026.7 |
| 20260902194102 | 65 | 29 | 13.0 | 16.0 | 0.02 | 0.15 | 0.15 | 99 | 1026.9 |
| 20260902193557 | 65 | 29 | 13.0 | 16.0 | 0.05 | 0.15 | 0.15 | 99 | 1027.0 |
| 20260902193056 | 65 | 29 | 13.0 | 16.0 | 0.12 | 0.15 | 0.15 | 99 | 1026.9 |
| 20260902192555 | 64 | 29 | 13.0 | 16.0 | 0.19 | 0.14 | 0.14 | 99 | 1027.1 |
| 20260902192054 | 64 | 29 | 13.0 | 16.0 | 0.12 | 0.12 | 0.12 | 99 | 1027.1 |
| 20260902191550 | 64 | 29 | 13.0 | 16.0 | 0.12 | 0.11 | 0.11 | 98 | 1027.3 |
| 20260902191044 | 64 | 29 | 13.0 | 16.0 | 0.12 | 0.10 | 0.10 | 98 | 1027.4 |
| 20260902190540 | 64 | 29 | 13.0 | 16.0 | 0.17 | 0.09 | 0.09 | 97 | 1027.5 |
| 20260902190035 | 64 | 29 | 13.0 | 16.0 | 0.40 | 0.07 | 0.07 | 97 | 1027.8 |
| 20260902185531 | 65 | 29 | 13.0 | 16.0 | 0.24 | 0.05 | 0.05 | 95 | 1028.6 |
| 20260902185027 | 66 | 29 | 13.0 | 16.0 | 0.00 | 0.01 | 0.01 | 94 | 1028.8 |
| 20260902184526 | 66 | 29 | 13.0 | 16.0 | 0.00 | 0.01 | 0.01 | 93 | 1028.2 |
| 20260902184022 | 66 | 29 | 13.0 | 16.0 | 0.00 | 0.01 | 0.01 | 93 | 1027.6 |
| 20260902183518 | 67 | 29 | 13.0 | 16.0 | 0.00 | 0.01 | 0.01 | 91 | 1027.5 |
| 20260902183014 | 67 | 29 | 13.0 | 16.0 | 0.00 | 0.01 | 0.01 | 89 | 1027.3 |
| 20260902182510 | 66 | 29 | 13.0 | 16.0 | 0.00 | 0.01 | 0.01 | 88 | 1027.1 |
| 20260902182006 | 67 | 29 | 13.0 | 16.0 | 0.00 | 0.01 | 0.01 | 90 | 1027.1 |
| 20260902181501 | 67 | 29 | 13.0 | 16.0 | 0.00 | 0.01 | 0.01 | 88 | 1027.4 |
| 20260902180956 | 67 | 29 | 13.0 | 16.0 | 0.00 | 0.01 | 0.01 | 89 | 1027.4 |
| 20260902180451 | 67 | 29 | 13.0 | 16.0 | 0.00 | 0.01 | 0.01 | 88 | 1027.4 |
| 20260902175947 | 67 | 29 | 13.0 | 16.0 | 0.00 | 0.01 | 0.01 | 87 | 1027.5 |
| 20260902175447 | 67 | 29 | 13.0 | 16.0 | 0.00 | 0.01 | 0.01 | 87 | 1027.7 |
| 20260902174942 | 67 | 29 | 13.0 | 16.0 | 0.00 | 0.01 | 0.01 | 86 | 1027.8 |
| 20260902174439 | 67 | 29 | 13.0 | 16.0 | 0.00 | 0.01 | 0.01 | 85 | 1027.8 |
| 20260902173934 | 67 | 29 | 13.0 | 16.0 | 0.00 | 0.01 | 0.01 | 89 | 1027.8 |
| 20260902173433 | 67 | 29 | 13.0 | 16.0 | 0.00 | 0.01 | 0.01 | 89 | 1027.7 |
| 20260902172929 | 67 | 29 | 13.0 | 16.0 | 0.00 | 0.01 | 0.01 | 88 | 1027.7 |
| 20260902172428 | 67 | 29 | 13.0 | 16.0 | 0.00 | 0.01 | 0.01 | 89 | 1027.8 |
| 20260902171924 | 67 | 29 | 13.0 | 16.0 | 0.00 | 0.01 | 0.01 | 86 | 1027.7 |
| 20260902171419 | 67 | 29 | 13.0 | 16.0 | 0.00 | 0.01 | 0.01 | 84 | 1027.8 |
| 20260902170915 | 67 | 29 | 13.0 | 16.0 | 0.00 | 0.01 | 0.01 | 85 | 1028.0 |
| 20260902170410 | 67 | 29 | 13.0 | 16.0 | 0.00 | 0.01 | 0.01 | 86 | 1027.9 |
| 20260902165906 | 67 | 29 | 13.0 | 16.0 | 0.00 | 0.01 | 0.01 | 90 | 1028.1 |
| 20260902165405 | 67 | 29 | 13.0 | 16.0 | 0.00 | 0.01 | 0.01 | 90 | 1027.9 |
| 20260902164859 | 67 | 29 | 13.0 | 16.0 | 0.00 | 0.01 | 0.01 | 89 | 1027.8 |
| 20260902164354 | 67 | 29 | 13.0 | 16.0 | 0.00 | 0.01 | 0.01 | 89 | 1027.8 |
| 20260902163854 | 67 | 29 | 13.0 | 16.0 | 0.00 | 0.01 | 0.01 | 87 | 1027.6 |
| 20260902163349 | 67 | 29 | 13.0 | 16.0 | 0.00 | 0.01 | 0.01 | 86 | 1027.6 |
| 20260902162847 | 67 | 29 | 13.0 | 16.0 | 0.00 | 0.01 | 0.01 | 86 | 1027.7 |
| 20260902162343 | 67 | 29 | 13.0 | 16.0 | 0.00 | 0.01 | 0.01 | 88 | 1028.0 |
| 20260902161843 | 67 | 29 | 13.0 | 16.0 | 0.00 | 0.01 | 0.01 | 87 | 1027.8 |
| 20260902161338 | 67 | 29 | 13.0 | 16.0 | 0.00 | 0.01 | 0.01 | 88 | 1027.8 |
| 20260902160834 | 67 | 29 | 13.0 | 16.0 | 0.00 | 0.01 | 0.01 | 85 | 1027.9 |
| 20260902160329 | 67 | 29 | 13.0 | 16.0 | 0.00 | 0.01 | 0.01 | 87 | 1028.1 |
| 20260902155827 | 67 | 29 | 13.0 | 16.0 | 0.00 | 0.01 | 0.01 | 86 | 1028.0 |
| 20260902155326 | 67 | 29 | 13.0 | 16.0 | 0.00 | 0.01 | 0.01 | 86 | 1028.0 |
| 20260902154821 | 67 | 29 | 13.0 | 16.0 | 0.00 | 0.01 | 0.01 | 85 | 1027.9 |
| 20260902154317 | 67 | 29 | 13.0 | 16.0 | 0.00 | 0.01 | 0.01 | 86 | 1028.0 |
| 20260902153816 | 68 | 29 | 13.0 | 16.0 | 0.00 | 0.01 | 0.01 | 86 | 1028.0 |
| 20260902153315 | 68 | 29 | 13.0 | 16.0 | 0.00 | 0.01 | 0.01 | 85 | 1027.8 |
| 20260902152811 | 67 | 29 | 13.0 | 16.0 | 0.00 | 0.01 | 0.01 | 84 | 1027.9 |
| 20260902152308 | 68 | 29 | 13.0 | 16.0 | 0.00 | 0.01 | 0.01 | 88 | 1027.6 |
| 20260902151808 | 67 | 29 | 13.0 | 16.0 | 0.00 | 0.01 | 0.01 | 86 | 1027.7 |
| 20260902151303 | 67 | 29 | 13.0 | 16.0 | 0.00 | 0.01 | 0.01 | 88 | 1027.7 |
| 20260902150757 | 68 | 29 | 13.0 | 16.0 | 0.00 | 0.01 | 0.01 | 89 | 1027.7 |
| 20260902150254 | 66 | 29 | 13.0 | 16.0 | 0.00 | 0.01 | 0.01 | 90 | 1027.8 |
| 20260902145753 | 66 | 29 | 13.0 | 16.0 | 0.00 | 0.01 | 0.01 | 88 | 1027.8 |
| 20260902145249 | 66 | 29 | 13.0 | 16.0 | 0.00 | 0.01 | 0.01 | 90 | 1028.0 |
| 20260902144744 | 65 | 29 | 13.0 | 16.0 | 0.00 | 0.01 | 0.01 | 89 | 1027.7 |
| 20260902144240 | 65 | 29 | 13.0 | 16.0 | 0.00 | 0.01 | 0.01 | 90 | 1028.0 |
| 20260902143740 | 66 | 29 | 13.0 | 16.0 | 0.00 | 0.01 | 0.01 | 90 | 1028.1 |
| 20260902143235 | 65 | 29 | 13.0 | 16.0 | 0.00 | 0.01 | 0.01 | 91 | 1028.1 |
| 20260902142731 | 66 | 29 | 13.0 | 16.0 | 0.00 | 0.01 | 0.01 | 91 | 1028.1 |
| 20260902142227 | 65 | 29 | 13.0 | 16.0 | 0.00 | 0.01 | 0.01 | 90 | 1028.0 |
| 20260902141721 | 65 | 29 | 13.0 | 16.0 | 0.00 | 0.01 | 0.01 | 93 | 1028.1 |
| 20260902141217 | 64 | 29 | 13.0 | 16.0 | 0.00 | 0.01 | 0.01 | 92 | 1028.4 |
| 20260902140712 | 64 | 29 | 13.0 | 16.0 | 0.00 | 0.01 | 0.01 | 93 | 1028.5 |
| 20260902140212 | 64 | 29 | 13.0 | 16.0 | 0.00 | 0.01 | 0.01 | 95 | 1028.7 |
| 20260902135711 | 63 | 29 | 13.0 | 16.0 | 0.00 | 0.01 | 0.01 | 97 | 1028.5 |
| 20260902135208 | 63 | 29 | 13.0 | 16.0 | 0.00 | 0.01 | 0.01 | 97 | 1028.3 |
| 20260902134707 | 63 | 29 | 13.0 | 16.0 | 0.00 | 0.01 | 0.01 | 97 | 1028.2 |
| 20260902134202 | 63 | 29 | 13.0 | 16.0 | 0.00 | 0.01 | 0.01 | 98 | 1027.9 |
| 20260902133657 | 63 | 29 | 13.0 | 16.0 | 0.00 | 0.01 | 0.01 | 98 | 1028.0 |
| 20260902133156 | 62 | 29 | 13.0 | 16.0 | 0.00 | 0.01 | 0.01 | 98 | 1027.8 |
| 20260902132652 | 62 | 29 | 13.0 | 16.0 | 0.00 | 0.01 | 0.01 | 98 | 1027.9 |
| 20260902132147 | 63 | 29 | 13.0 | 16.0 | 0.00 | 0.01 | 0.01 | 99 | 1027.9 |
| 20260902131643 | 62 | 29 | 13.0 | 16.0 | 0.00 | 0.01 | 0.01 | 99 | 1027.6 |
| 20260902131138 | 62 | 29 | 13.0 | 16.0 | 0.00 | 0.01 | 0.01 | 99 | 1027.7 |
| 20260902130634 | 62 | 29 | 13.0 | 16.0 | 0.00 | 0.01 | 0.01 | 99 | 1027.8 |
| 20260902130129 | 62 | 29 | 13.0 | 16.0 | 0.00 | 0.01 | 0.01 | 99 | 1027.9 |
| 20260902125625 | 62 | 29 | 13.0 | 16.0 | 0.00 | 0.01 | 0.01 | 99 | 1028.0 |
| 20260902125120 | 62 | 29 | 13.0 | 16.0 | 0.00 | 0.01 | 0.01 | 99 | 1027.7 |
| 20260902124617 | 62 | 29 | 13.0 | 16.0 | 0.00 | 0.01 | 0.01 | 99 | 1027.7 |
| 20260902124117 | 62 | 29 | 13.0 | 16.0 | 0.00 | 0.01 | 0.01 | 99 | 1027.7 |
| 20260902123613 | 61 | 29 | 13.0 | 16.0 | 0.00 | 0.01 | 0.01 | 99 | 1027.4 |
| 20260902123108 | 61 | 29 | 13.0 | 16.0 | 0.00 | 0.01 | 0.01 | 99 | 1027.7 |
| 20260902122607 | 61 | 29 | 13.0 | 16.0 | 0.00 | 0.01 | 0.01 | 99 | 1027.7 |
| 20260902122103 | 61 | 29 | 13.0 | 16.0 | 0.00 | 0.01 | 0.01 | 99 | 1027.7 |
| 20260902121602 | 61 | 29 | 13.0 | 16.0 | 0.00 | 0.01 | 0.01 | 99 | 1027.8 |
| 20260902121057 | 61 | 29 | 13.0 | 16.0 | 0.00 | 0.01 | 0.01 | 99 | 1027.6 |
| 20260902120553 | 61 | 29 | 13.0 | 16.0 | 0.00 | 0.01 | 0.01 | 99 | 1027.5 |
| 20260902120049 | 61 | 29 | 13.0 | 16.0 | 0.00 | 0.01 | 0.01 | 99 | 1027.6 |
| 20260902115544 | 61 | 29 | 13.0 | 16.0 | 0.00 | 0.01 | 0.01 | 99 | 1027.5 |
| 20260902115041 | 61 | 29 | 13.0 | 16.0 | 0.00 | 0.01 | 0.01 | 99 | 1027.6 |
| 20260902114536 | 61 | 29 | 13.0 | 16.0 | 0.00 | 0.01 | 0.01 | 99 | 1027.8 |
| 20260902114036 | 61 | 29 | 13.0 | 16.0 | 0.00 | 0.01 | 0.01 | 99 | 1027.7 |
| 20260902113532 | 61 | 29 | 13.0 | 16.0 | 0.00 | 0.01 | 0.01 | 99 | 1027.7 |
| 20260902113027 | 61 | 29 | 13.0 | 16.0 | 0.00 | 0.01 | 0.01 | 99 | 1027.8 |
| 20260902112522 | 61 | 29 | 13.0 | 16.0 | 0.00 | 0.01 | 0.01 | 99 | 1027.8 |
| 20260902112019 | 60 | 29 | 13.0 | 16.0 | 0.00 | 0.01 | 0.01 | 99 | 1027.8 |
| 20260902111515 | 60 | 29 | 13.0 | 16.0 | 0.00 | 0.01 | 0.01 | 99 | 1027.7 |
| 20260902111010 | 60 | 29 | 13.0 | 16.0 | 0.00 | 0.01 | 0.01 | 99 | 1027.6 |
| 20260902110506 | 60 | 29 | 13.0 | 16.0 | 0.00 | 0.01 | 0.01 | 99 | 1027.5 |
| 20260902110001 | 60 | 29 | 13.0 | 16.0 | 0.00 | 0.01 | 0.01 | 99 | 1027.6 |
| 20260902105457 | 60 | 29 | 13.0 | 16.0 | 0.00 | 0.01 | 0.01 | 99 | 1027.6 |
| 20260902104956 | 60 | 29 | 13.0 | 16.0 | 0.00 | 0.01 | 0.01 | 99 | 1027.4 |
| 20260902104452 | 60 | 29 | 13.0 | 16.0 | 0.00 | 0.01 | 0.01 | 99 | 1027.4 |
| 20260902103952 | 60 | 29 | 13.0 | 16.0 | 0.00 | 0.01 | 0.01 | 99 | 1027.7 |
| 20260902103447 | 60 | 29 | 13.0 | 16.0 | 0.00 | 0.01 | 0.01 | 99 | 1027.6 |
| 20260902102942 | 60 | 29 | 13.0 | 16.0 | 0.00 | 0.01 | 0.01 | 99 | 1027.4 |
| 20260902102440 | 60 | 29 | 13.0 | 16.0 | 0.00 | 0.01 | 0.01 | 99 | 1027.6 |
| 20260902101936 | 60 | 29 | 13.0 | 16.0 | 0.00 | 0.01 | 0.01 | 99 | 1027.4 |
| 20260902101436 | 60 | 29 | 13.0 | 16.0 | 0.00 | 0.01 | 0.01 | 99 | 1027.2 |
| 20260902100935 | 60 | 29 | 13.0 | 16.0 | 0.00 | 0.01 | 0.01 | 99 | 1027.2 |
| 20260902100429 | 60 | 29 | 13.0 | 16.0 | 0.00 | 0.01 | 0.01 | 99 | 1027.1 |
| 20260902095924 | 60 | 29 | 13.0 | 16.0 | 0.00 | 0.01 | 0.01 | 99 | 1027.3 |
| 20260902095419 | 60 | 29 | 13.0 | 16.0 | 0.00 | 0.01 | 0.01 | 99 | 1027.2 |
| 20260902094918 | 60 | 29 | 13.0 | 16.0 | 0.00 | 0.01 | 0.01 | 99 | 1027.1 |
| 20260902094414 | 60 | 29 | 13.0 | 16.0 | 0.00 | 0.01 | 0.01 | 99 | 1026.9 |
| 20260902093914 | 60 | 29 | 13.0 | 16.0 | 0.00 | 0.01 | 0.01 | 99 | 1026.8 |
| 20260902093409 | 60 | 29 | 13.0 | 16.0 | 0.00 | 0.01 | 0.01 | 99 | 1026.8 |
| 20260902092908 | 60 | 29 | 13.0 | 16.0 | 0.00 | 0.01 | 0.01 | 99 | 1027.1 |
| 20260902092404 | 60 | 29 | 13.0 | 16.0 | 0.00 | 0.01 | 0.01 | 99 | 1027.0 |
| 20260902091859 | 60 | 29 | 13.0 | 16.0 | 0.00 | 0.01 | 0.01 | 99 | 1026.9 |
| 20260902091354 | 60 | 29 | 13.0 | 16.0 | 0.00 | 0.01 | 0.01 | 99 | 1026.9 |
| 20260902090851 | 60 | 29 | 13.0 | 16.0 | 0.00 | 0.01 | 0.01 | 99 | 1026.9 |
| 20260902090350 | 60 | 29 | 13.0 | 16.0 | 0.00 | 0.01 | 0.01 | 99 | 1026.7 |
| 20260902085849 | 60 | 29 | 13.0 | 16.0 | 0.00 | 0.01 | 0.01 | 99 | 1026.6 |
| 20260902085344 | 60 | 29 | 13.0 | 16.0 | 0.00 | 0.01 | 0.01 | 99 | 1026.6 |
| 20260902084840 | 60 | 29 | 13.0 | 16.0 | 0.00 | 0.01 | 0.01 | 99 | 1026.8 |
| 20260902084336 | 60 | 29 | 13.0 | 16.0 | 0.00 | 0.01 | 0.01 | 99 | 1026.6 |
| 20260902083831 | 61 | 29 | 13.0 | 16.0 | 0.00 | 0.01 | 0.01 | 99 | 1026.7 |
| 20260902083332 | 60 | 29 | 13.0 | 16.0 | 0.00 | 0.01 | 0.01 | 99 | 1026.6 |
| 20260902082827 | 61 | 29 | 13.0 | 16.0 | 0.00 | 0.01 | 0.01 | 99 | 1026.4 |
| 20260902082323 | 61 | 29 | 13.0 | 16.0 | 0.00 | 0.01 | 0.01 | 99 | 1026.4 |
| 20260902081819 | 61 | 29 | 13.0 | 16.0 | 0.02 | 0.01 | 0.01 | 99 | 1026.0 |
| 20260902081314 | 61 | 29 | 13.0 | 16.0 | 0.02 | 0.01 | 0.01 | 99 | 1025.9 |
| 20260902080809 | 61 | 29 | 13.0 | 16.0 | 0.00 | 0.00 | 0.00 | 99 | 1026.2 |
| 20260902080307 | 61 | 29 | 13.0 | 16.0 | 0.00 | 0.00 | 0.00 | 99 | 1026.4 |
| 20260902075805 | 61 | 29 | 13.0 | 16.0 | 0.00 | 0.00 | 0.00 | 99 | 1026.4 |
| 20260902075302 | 61 | 29 | 13.0 | 16.0 | 0.00 | 0.00 | 0.00 | 99 | 1026.2 |
| 20260902074801 | 61 | 29 | 13.0 | 16.0 | 0.00 | 0.00 | 0.00 | 99 | 1026.3 |
| 20260902074257 | 61 | 29 | 13.0 | 16.0 | 0.00 | 0.00 | 0.00 | 99 | 1026.4 |
| 20260902073752 | 61 | 29 | 13.0 | 16.0 | 0.00 | 0.00 | 0.00 | 99 | 1026.3 |
| 20260902073248 | 61 | 29 | 13.0 | 16.0 | 0.00 | 0.00 | 0.00 | 99 | 1026.0 |
| 20260902072743 | 61 | 29 | 13.0 | 16.0 | 0.00 | 0.00 | 0.00 | 99 | 1025.8 |
| 20260902072239 | 61 | 29 | 13.0 | 16.0 | 0.00 | 0.00 | 0.00 | 99 | 1025.8 |
| 20260902071736 | 61 | 29 | 13.0 | 16.0 | 0.00 | 0.00 | 0.00 | 99 | 1025.8 |
| 20260902071230 | 61 | 29 | 13.0 | 16.0 | 0.00 | 0.00 | 0.00 | 99 | 1025.8 |
| 20260902070727 | 61 | 29 | 13.0 | 16.0 | 0.00 | 0.00 | 0.00 | 99 | 1025.7 |
| 20260902070226 | 61 | 29 | 13.0 | 16.0 | 0.00 | 0.00 | 0.00 | 99 | 1025.8 |
| 20260902065725 | 61 | 29 | 13.0 | 16.0 | 0.00 | 0.00 | 0.00 | 99 | 1025.9 |
| 20260902065221 | 61 | 29 | 13.0 | 16.0 | 0.00 | 0.00 | 0.00 | 99 | 1026.2 |
| 20260902064716 | 61 | 29 | 13.0 | 16.0 | 0.00 | 0.00 | 0.00 | 99 | 1025.9 |
| 20260902064213 | 61 | 29 | 13.0 | 16.0 | 0.00 | 0.00 | 0.00 | 99 | 1026.0 |
| 20260902063708 | 61 | 29 | 13.0 | 16.0 | 0.00 | 0.00 | 0.00 | 99 | 1026.0 |
| 20260902063207 | 61 | 29 | 13.0 | 16.0 | 0.00 | 0.00 | 0.00 | 99 | 1026.0 |
| 20260902062707 | 61 | 29 | 13.0 | 16.0 | 0.00 | 0.00 | 0.00 | 99 | 1026.0 |
| 20260902062202 | 61 | 29 | 13.0 | 16.0 | 0.00 | 0.00 | 0.00 | 99 | 1026.0 |
| 20260902061701 | 61 | 29 | 13.0 | 16.0 | 0.00 | 0.00 | 0.00 | 99 | 1026.0 |
| 20260902061157 | 61 | 29 | 13.0 | 16.0 | 0.00 | 0.00 | 0.00 | 99 | 1026.2 |
| 20260902060653 | 61 | 29 | 13.0 | 16.0 | 0.00 | 0.00 | 0.00 | 99 | 1026.0 |
| 20260902060149 | 61 | 29 | 13.0 | 16.0 | 0.00 | 0.00 | 0.00 | 99 | 1026.3 |
| 20260902055645 | 61 | 29 | 13.0 | 16.0 | 0.00 | 0.00 | 0.00 | 99 | 1025.9 |
| 20260902055140 | 61 | 29 | 13.0 | 16.0 | 0.00 | 0.00 | 0.00 | 99 | 1026.0 |
| 20260902054636 | 61 | 29 | 13.0 | 16.0 | 0.00 | 0.00 | 0.00 | 99 | 1026.2 |
| 20260902054131 | 61 | 29 | 13.0 | 16.0 | 0.00 | 0.00 | 0.00 | 99 | 1026.0 |
| 20260902053626 | 61 | 29 | 13.0 | 16.0 | 0.00 | 0.00 | 0.00 | 99 | 1026.2 |
| 20260902053120 | 61 | 29 | 13.0 | 16.0 | 0.00 | 0.00 | 0.00 | 99 | 1026.3 |
| 20260902052615 | 61 | 29 | 13.0 | 16.0 | 0.00 | 0.00 | 0.00 | 99 | 1026.2 |
| 20260902052110 | 61 | 29 | 13.0 | 16.0 | 0.00 | 0.00 | 0.00 | 99 | 1026.2 |
| 20260902051609 | 61 | 29 | 13.0 | 16.0 | 0.00 | 0.00 | 0.00 | 99 | 1026.2 |
| 20260902051109 | 61 | 29 | 13.0 | 16.0 | 0.00 | 0.00 | 0.00 | 99 | 1026.3 |
| 20260902050603 | 61 | 29 | 13.0 | 16.0 | 0.00 | 0.00 | 0.00 | 99 | 1026.2 |
| 20260902050059 | 61 | 29 | 13.0 | 16.0 | 0.00 | 0.00 | 0.00 | 99 | 1026.0 |
| 20260902045554 | 61 | 29 | 13.0 | 16.0 | 0.00 | 0.00 | 0.00 | 99 | 1025.9 |
| 20260902045051 | 61 | 29 | 13.0 | 16.0 | 0.02 | 0.00 | 0.00 | 99 | 1026.0 |
| 20260902044550 | 61 | 29 | 13.0 | 16.0 | 0.02 | 0.00 | 0.00 | 99 | 1025.9 |
| 20260902044046 | 61 | 29 | 13.0 | 16.0 | 0.00 | 0.00 | 0.00 | 99 | 1025.8 |
| 20260902043541 | 61 | 29 | 13.0 | 16.0 | 0.00 | 0.00 | 0.00 | 99 | 1025.9 |
| 20260902043036 | 61 | 29 | 13.0 | 16.0 | 0.00 | 0.00 | 0.00 | 99 | 1025.9 |
| 20260902042536 | 61 | 29 | 13.0 | 16.0 | 0.00 | 0.00 | 0.00 | 99 | 1025.8 |
| 20260902042031 | 61 | 29 | 13.0 | 16.0 | 0.00 | 0.00 | 0.00 | 99 | 1025.9 |
| 20260902041525 | 61 | 29 | 13.0 | 16.0 | 0.00 | 0.00 | 0.00 | 99 | 1025.6 |
| 20260902041020 | 61 | 29 | 13.0 | 16.0 | 0.00 | 0.00 | 0.00 | 99 | 1025.8 |
| 20260902040520 | 61 | 29 | 13.0 | 16.0 | 0.00 | 0.00 | 0.00 | 99 | 1025.7 |
| 20260902040015 | 61 | 29 | 13.0 | 16.0 | 0.00 | 0.92 | 0.92 | 99 | 1025.6 |
| 20260902035514 | 61 | 29 | 13.0 | 16.0 | 0.00 | 0.92 | 0.92 | 99 | 1025.7 |
| 20260902035009 | 61 | 29 | 13.0 | 16.0 | 0.00 | 0.92 | 0.92 | 99 | 1025.6 |
| 20260902034503 | 61 | 29 | 13.0 | 16.0 | 0.00 | 0.92 | 0.92 | 99 | 1025.5 |
| 20260902034002 | 61 | 29 | 13.0 | 16.0 | 0.00 | 0.92 | 0.92 | 99 | 1025.2 |
| 20260902033501 | 61 | 29 | 13.0 | 16.0 | 0.00 | 0.92 | 0.92 | 99 | 1025.2 |
| 20260902033000 | 61 | 29 | 13.0 | 16.0 | 0.00 | 0.92 | 0.92 | 99 | 1025.3 |
| 20260902032455 | 61 | 29 | 13.0 | 16.0 | 0.00 | 0.92 | 0.92 | 99 | 1025.3 |
| 20260902031950 | 61 | 29 | 13.0 | 16.0 | 0.00 | 0.92 | 0.92 | 99 | 1025.3 |
| 20260902031445 | 61 | 29 | 13.0 | 16.0 | 0.00 | 0.92 | 0.92 | 99 | 1025.2 |
| 20260902030942 | 61 | 29 | 13.0 | 16.0 | 0.00 | 0.92 | 0.92 | 99 | 1025.4 |
| 20260902030441 | 61 | 29 | 13.0 | 16.0 | 0.00 | 0.92 | 0.92 | 99 | 1025.5 |
| 20260902025940 | 61 | 29 | 13.0 | 16.0 | 0.00 | 0.92 | 0.92 | 99 | 1025.5 |
| 20260902025437 | 61 | 29 | 13.0 | 16.0 | 0.02 | 0.92 | 0.92 | 99 | 1025.1 |
| 20260902024937 | 61 | 29 | 13.0 | 16.0 | 0.02 | 0.92 | 0.92 | 99 | 1025.2 |
| 20260902024432 | 61 | 29 | 13.0 | 16.0 | 0.00 | 0.92 | 0.92 | 99 | 1025.0 |
| 20260902023927 | 61 | 29 | 13.0 | 16.0 | 0.00 | 0.92 | 0.92 | 99 | 1024.9 |
| 20260902023423 | 62 | 29 | 13.0 | 16.0 | 0.00 | 0.92 | 0.92 | 99 | 1024.8 |
| 20260902022922 | 61 | 29 | 13.0 | 16.0 | 0.00 | 0.92 | 0.92 | 99 | 1024.5 |
| 20260902022417 | 61 | 29 | 13.0 | 16.0 | 0.00 | 0.92 | 0.92 | 99 | 1024.7 |
| 20260902021913 | 61 | 29 | 13.0 | 16.0 | 0.00 | 0.92 | 0.92 | 99 | 1024.9 |
| 20260902021413 | 62 | 29 | 13.0 | 16.0 | 0.00 | 0.92 | 0.92 | 99 | 1024.9 |
| 20260902020909 | 61 | 29 | 13.0 | 16.0 | 0.00 | 0.92 | 0.92 | 99 | 1025.1 |
| 20260902020405 | 62 | 29 | 13.0 | 16.0 | 0.00 | 0.92 | 0.92 | 99 | 1024.9 |
| 20260902015900 | 62 | 29 | 13.0 | 16.0 | 0.00 | 0.92 | 0.92 | 99 | 1024.8 |
| 20260902015355 | 62 | 29 | 13.0 | 16.0 | 0.00 | 0.92 | 0.92 | 99 | 1024.7 |
| 20260902014851 | 62 | 29 | 13.0 | 16.0 | 0.00 | 0.92 | 0.92 | 99 | 1024.6 |
| 20260902014348 | 62 | 29 | 13.0 | 16.0 | 0.00 | 0.92 | 0.92 | 99 | 1024.5 |
| 20260902013846 | 62 | 29 | 13.0 | 16.0 | 0.00 | 0.92 | 0.92 | 99 | 1024.6 |
| 20260902013342 | 62 | 29 | 13.0 | 16.0 | 0.00 | 0.92 | 0.92 | 99 | 1024.5 |
| 20260902012837 | 62 | 29 | 13.0 | 16.0 | 0.00 | 0.92 | 0.92 | 99 | 1024.5 |
| 20260902012333 | 62 | 29 | 13.0 | 16.0 | 0.00 | 0.92 | 0.92 | 99 | 1024.5 |